Location: ???? ??
(36.0534°N, 43.5630°E)
Time: 22:18:38
(UTC+00:00)

CZ-2D R/B - Pass Details

Date: 18 September 2019
Orbit: 523 x 538 km, 97.4° (Epoch: 21 October)

Event Time Altitude Azimuth Distance (km) Brightness Sun altitude
Rises 15:35:31 0° 151° (SSE) 2,641 6.4 -6.1°
Reaches altitude 10° 15:37:41 10° 144° (SE) 1,756 5.5 -6.5°
Maximum altitude 15:41:14 39° 74° (ENE) 789 3.7 -7.3°
Drops below altitude 10° 15:44:48 10° 5° (N) 1,767 6.0 -8.0°
Sets 15:47:00 0° 357° (N) 2,660 7.0 -8.4°
